Location: Paderno d�Adda
(45.6667°N, 9.4333°E)
Time: 13:37:26
(UTC+00:00)

Lacrosse 5 rocket - Pass Details

Date: 19 September 2020
Orbit: 460 x 636 km, 57.0° (Epoch: 30 October)

Event Time Altitude Azimuth Distance (km) Brightness Sun altitude
Rises 19:41:43 0° 295° (WNW) 2,797 6.4 -23.7°
Reaches altitude 10° 19:44:31 10° 314° (NW) 1,931 5.1 -24.1°
Maximum altitude 19:47:41 19° 360° (N) 1,469 3.8 -24.6°
Enters shadow 19:49:29 15° 29° (NNE) 1,654 3.7 -24.9°
